Retour au catalogue

FLOCK 4G 36

ActifScienceSSO
NORAD 62675·PAYLOAD·🇺🇸 United States

Lancé Jan 14, 2025 depuis Vandenberg Space Force Base

Loading…

Prochains Passages (prochaines 24 heures)

TLE

FraisSource: CelesTrak SupGP

Époque: Sep 14, 2026, 18:45 UTC

1 62675C 25009BU  26257.78146991  .00004816  00000+0  16147-3 0  2576
2 62675  97.3962 339.1694 0004480  23.1657 131.5011 15.30955540    19

Suivez FLOCK 4G 36 en temps réel avec AllMySat

Download on the App Store